Location: Fontevrault
(47.1823°N, 0.0493°E)
Time: 09:53:00
(UTC+00:00)

Lacrosse 5 - Pass Details

Date: 28 October 2021
Orbit: 714 x 724 km, 57.0° (Epoch: 28 August)

Event Time Altitude Azimuth Distance (km) Brightness Sun altitude
Rises 18:53:13 0° 199° (SSW) 3,124 5.4 -21.6°
Reaches altitude 10° 18:55:48 10° 190° (S) 2,207 4.4 -22.0°
Enters shadow 18:58:38 26° 162° (SSE) 1,406 3.1 -22.5°
